Location: Lachepaillet
(43.4918°N, 1.4874°W)
Time: 23:17:25
(UTC+00:00)

Cosmos 1953 Rocket - Pass Details

Date: 15 May 2026
Orbit: 596 x 628 km, 82.5° (Epoch: 11 June)

Event Time Altitude Azimuth Distance (km) Brightness Sun altitude
Rises 22:13:32 0° 352° (N) 2,876 8.2 -22.7°
Reaches altitude 10° 22:15:46 10° 353° (N) 1,962 7.1 -22.9°
Maximum altitude 22:20:07 82° 82° (E) 613 3.4 -23.2°
Enters shadow 22:20:12 81° 107° (ESE) 614 3.3 -23.2°
